DW5683 Weather Reports


time (UTC)temp
C
wind
direction
speed
KPH
gust
KPH
rain 1hr
cm
rain 24hr
cm
rain mn
cm
humidity
%
barometer
mb
20260506061543 15 0 0.0 3.2 0.00 0.08 0.00 83 1017.2
20260506044543 15 0 0.0 0.0 0.00 0.56 0.00 81 1016.4
20260506043037 15 0 0.0 0.0 0.00 0.56 0.00 80 1016.2
20260506041550 15 0 0.0 0.0 0.00 0.56 0.00 80 1016.0
20260506040035 15 0 0.0 0.0 0.00 0.56 0.00 79 1015.8
20260506034547 16 0 0.0 6.4 0.00 1.30 0.00 79 1015.6
20260506033040 16 0 0.0 6.4 0.00 1.30 0.00 78 1015.6
20260506031537 16 164 0.0 3.2 0.00 1.30 0.00 78 1015.4
20260506030039 16 0 0.0 0.0 0.00 1.30 0.00 78 1015.3
20260506024536 16 0 0.0 6.4 0.00 1.57 0.00 76 1015.0
20260506023034 16 164 1.6 6.4 0.00 1.57 0.00 76 1015.0
20260506021538 16 164 0.0 6.4 0.00 1.57 0.00 75 1014.6
20260506020042 17 0 0.0 3.2 0.00 1.57 0.00 74 1014.6
20260506014538 17 164 0.0 6.4 0.00 1.88 0.00 73 1014.4
20260506013050 17 0 1.6 6.4 0.00 1.88 0.00 72 1014.4
20260506011543 17 0 1.6 4.8 0.00 1.88 0.00 72 1014.3
20260506010043 17 184 0.0 8.0 0.00 1.88 0.00 71 1014.4
20260506004537 17 191 0.0 4.8 0.00 2.03 0.00 69 1014.3
20260506003038 17 193 0.0 4.8 0.00 2.03 0.00 67 1014.4
20260506001537 17 199 1.6 6.4 0.00 2.03 0.00 69 1014.0
20260506000037 18 209 0.0 4.8 0.00 2.03 0.00 69 1014.1
20260505234536 18 0 0.0 4.8 0.00 2.31 0.00 69 1014.2
20260505233035 18 0 0.0 3.2 0.00 2.31 0.00 67 1014.1
20260505231534 18 210 0.0 4.8 0.00 2.31 0.00 73 1014.1
20260505230100 17 0 0.0 0.0 0.00 2.31 0.00 71 1014.3
20260505224538 17 0 0.0 0.0 0.00 2.54 0.00 70 1014.3
20260505223042 17 0 0.0 0.0 0.00 2.54 0.00 71 1014.5
20260505221541 17 0 0.0 1.6 0.00 2.54 0.00 75 1014.5
20260505220049 17 0 0.0 3.2 0.00 2.54 0.00 74 1014.6
20260505214538 17 0 0.0 4.8 0.00 2.67 0.00 73 1014.7
20260505213037 17 210 0.0 4.8 0.00 2.67 0.00 73 1014.7
20260505211534 17 210 0.0 6.4 0.00 2.67 0.00 74 1014.7
20260505210038 17 210 1.6 8.0 0.00 2.67 0.00 73 1014.6
20260505204538 17 221 1.6 8.0 0.00 2.77 0.00 73 1014.6
20260505203038 18 0 1.6 6.4 0.00 2.77 0.00 70 1014.7
20260505201540 18 219 3.2 8.0 0.00 2.77 0.00 74 1014.7
20260505200041 19 0 0.0 3.2 0.00 2.77 0.00 72 1014.8
20260505194541 18 0 0.0 4.8 0.00 2.82 0.00 75 1015.0
20260505193042 17 178 0.0 9.7 0.00 2.82 0.00 75 1015.0
20260505191543 17 0 1.6 6.4 0.00 2.82 0.00 78 1015.0
20260505190038 16 141 0.0 4.8 0.00 2.82 0.00 81 1015.1
20260505184538 16 0 0.0 6.4 0.00 2.82 0.00 78 1015.1
20260505183039 16 132 0.0 6.4 0.00 2.82 0.00 81 1015.0
20260505181541 15 130 0.0 4.8 0.00 2.82 0.00 81 1014.9
20260505180044 15 128 0.0 3.2 0.00 2.82 0.00 88 1014.8
20260505174538 14 127 0.0 4.8 0.00 2.82 0.00 92 1014.7
20260505173038 13 0 0.0 4.8 0.00 2.82 0.00 93 1014.7
20260505171537 12 0 0.0 4.8 0.00 2.82 0.00 94 1014.8
20260505170036 12 0 0.0 6.4 0.00 2.82 0.00 94 1014.8
20260505164534 12 0 0.0 6.4 0.00 2.82 0.00 94 1014.6
20260505163032 12 0 0.0 3.2 0.00 2.82 0.00 94 1014.6
20260505161543 12 0 0.0 3.2 0.00 2.82 0.00 94 1014.6
20260505153035 11 0 0.0 3.2 0.00 2.82 0.00 94 1014.5
20260505151539 11 0 0.0 3.2 0.00 2.82 0.00 94 1014.4
20260505124543 10 0 0.0 3.2 0.00 2.82 0.00 93 1013.5
20260505123037 10 0 0.0 1.6 0.00 2.82 0.00 93 1013.5
20260505121541 10 0 0.0 3.2 0.00 2.82 0.00 93 1013.4
20260505120041 10 0 0.0 6.4 0.00 2.82 0.00 93 1013.4
20260505114537 10 126 0.0 1.6 0.00 2.82 0.00 93 1013.5
20260505113036 10 0 0.0 1.6 0.00 2.82 0.00 93 1013.6
20260505111535 11 0 0.0 0.0 0.00 2.82 0.00 93 1013.6
20260505101542 11 0 0.0 0.0 0.00 2.82 0.00 93 1013.6
20260505100036 10 0 0.0 0.0 0.00 2.82 0.00 93 1013.6
20260505094539 10 0 0.0 0.0 0.00 2.82 0.00 93 1013.4
20260505093039 10 0 0.0 0.0 0.00 2.82 0.00 93 1013.8
20260505091536 10 0 0.0 0.0 0.00 2.82 0.00 93 1013.8
20260505090042 10 0 0.0 0.0 0.00 2.82 0.00 93 1014.1
20260505084552 10 0 0.0 0.0 0.00 2.82 0.00 93 1014.1
20260505083054 10 0 0.0 1.6 0.00 2.82 0.00 93 1014.3
20260505081537 11 0 0.0 0.0 0.00 2.82 0.00 93 1014.4
20260505080044 10 0 0.0 0.0 0.00 2.82 0.00 93 1014.3
20260505074535 10 0 0.0 0.0 0.00 2.82 0.00 93 1014.2
20260505073035 10 0 0.0 0.0 0.03 2.82 0.00 93 1014.4
20260505071546 10 0 0.0 0.0 0.05 2.82 0.00 93 1014.4
20260505070037 10 0 0.0 0.0 0.08 2.82 0.00 93 1014.4
20260505064537 10 0 0.0 0.0 0.08 2.82 2.82 93 1014.2
20260505063032 10 0 0.0 0.0 0.15 2.79 2.79 93 1014.5